UnionvilleWeather Station
Hourly Leaf Wetness Data

Source: University of Missouri

To the bottom of the page

Year Month Day Hour Leaf Wetness Total
Precipitation
Avg. Temp Avg. Rel.
Humidity
Wind
Speed
CST mV in mm F C % mph
2017 11 22 1:00 271.1 0.0 0.00 22.7 -5.2 62.72 4.9
2017 11 22 2:00 271.1 0.0 0.00 21.8 -5.7 64.98 4.2
2017 11 22 3:00 271.5 0.0 0.00 20.8 -6.2 67.77 4.1
2017 11 22 4:00 272.1 0.0 0.00 18.9 -7.3 74.47 2.4
2017 11 22 5:00 272.2 0.0 0.00 18.9 -7.3 73.55 2.7
2017 11 22 6:00 272.4 0.0 0.00 18.2 -7.7 73.76 2.6
2017 11 22 7:00 272.9 0.0 0.00 17.2 -8.2 77.64 0.6
2017 11 22 8:00 272.8 0.0 0.00 16.1 -8.8 82.8 1.0
2017 11 22 9:00 270.3 0.0 0.00 21.7 -5.7 69.17 0.5
2017 11 22 10:00 269.4 0.0 0.00 24.7 -4.1 61.88 1.7
2017 11 22 11:00 269.3 0.0 0.00 27.8 -2.3 56.42 4.6
2017 11 22 12:00 268.9 0.0 0.00 31.5 -0.3 47.89 4.8
2017 11 22 13:00 268.8 0.0 0.00 35.2 1.8 39 5.7
2017 11 22 14:00 268.7 0.0 0.00 37.1 2.8 33.35 5.9
2017 11 22 15:00 268.5 0.0 0.00 38.0 3.3 30.58 6.5
2017 11 22 16:00 268.5 0.0 0.00 37.2 2.9 29.69 6.2
2017 11 22 17:00 269.0 0.0 0.00 35.4 1.9 35.49 4.4
2017 11 22 18:00 269.4 0.0 0.00 33.7 0.9 41.72 3.1
2017 11 22 19:00 269.6 0.0 0.00 32.8 0.4 46.28 4.4
2017 11 22 20:00 269.6 0.0 0.00 32.9 0.5 46.95 6.3
2017 11 22 21:00 269.9 0.0 0.00 31.6 -0.2 50.24 5.5
2017 11 22 22:00 270.3 0.0 0.00 30.3 -1.0 53.96 5.7
2017 11 22 23:00 270.3 0.0 0.00 31.1 -0.5 52.94 7.5
2017 11 22 24:00 269.9 0.0 0.00 32.6 0.3 51.53 7.8
2017 11 23 1:00 269.6 0.0 0.00 34.4 1.3 49.49 8.8
2017 11 23 2:00 269.6 0.0 0.00 35.4 1.9 48.13 8.5
2017 11 23 3:00 269.9 0.0 0.00 34.3 1.3 51.45 9.0
2017 11 23 4:00 270.3 0.0 0.00 33.6 0.9 53.87 8.3
2017 11 23 5:00 270.3 0.0 0.00 32.6 0.3 57.22 7.9
2017 11 23 6:00 270.3 0.0 0.00 31.7 -0.1 60.48 7.4
2017 11 23 7:00 270.7 0.0 0.00 30.9 -0.6 63.59 6.9
2017 11 23 8:00 270.5 0.0 0.00 31.3 -0.4 64.14 6.9
2017 11 23 9:00 269.8 0.0 0.00 33.7 1.0 61.26 7.5
2017 11 23 10:00 269.5 0.0 0.00 37.9 3.3 56.91 8.4
2017 11 23 11:00 269.3 0.0 0.00 42.1 5.6 53.81 7.4
2017 11 23 12:00 268.7 0.0 0.00 47.0 8.3 49.18 5.6
2017 11 23 13:00 268.6 0.0 0.00 51.0 10.5 46.02 6.7
2017 11 23 14:00 268.6 0.0 0.00 53.2 11.8 44.19 5.5
2017 11 23 15:00 268.8 0.0 0.00 54.6 12.6 43.2 5.4
2017 11 23 16:00 268.6 0.0 0.00 55.4 13.0 42.19 2.5
2017 11 23 17:00 269.4 0.0 0.00 53.3 11.8 44.87 1.2
2017 11 23 18:00 270.0 0.0 0.00 49.4 9.7 50.69 1.3
2017 11 23 19:00 270.5 0.0 0.00 46.1 7.9 57.64 1.7
2017 11 23 20:00 270.8 0.0 0.00 44.0 6.7 62.31 3.6
2017 11 23 21:00 270.8 0.0 0.00 42.9 6.1 65.13 3.6
2017 11 23 22:00 270.9 0.0 0.00 43.0 6.1 67.21 5.4
2017 11 23 23:00 270.9 0.0 0.00 42.7 6.0 69.52 4.8
2017 11 23 24:00 270.8 0.0 0.00 45.2 7.3 65.37 5.0
2017 11 24 1:00 270.8 0.0 0.00 46.7 8.2 62.66 5.8
2017 11 24 2:00 270.5 0.0 0.00 48.4 9.1 59.65 7.0
2017 11 24 3:00 270.4 0.0 0.00 48.3 9.0 59.8 6.3
2017 11 24 4:00 270.9 0.0 0.00 44.6 7.0 67.44 4.5
2017 11 24 5:00 270.8 0.0 0.00 44.4 6.9 67.02 6.0
2017 11 24 6:00 270.8 0.0 0.00 44.4 6.9 66.01 7.4
2017 11 24 7:00 271.0 0.0 0.00 43.2 6.2 67.9 7.0
2017 11 24 8:00 270.6 0.0 0.00 45.0 7.2 63.4 10.3
2017 11 24 9:00 269.8 0.0 0.00 49.7 9.8 55.15 12.1
2017 11 24 10:00 268.8 0.0 0.00 56.8 13.8 43.75 14.3
2017 11 24 11:00 268.4 0.0 0.00 60.4 15.8 40.15 14.9
2017 11 24 12:00 267.9 0.0 0.00 64.6 18.1 36.53 14.2
2017 11 24 13:00 267.8 0.0 0.00 66.6 19.2 34.39 16.0
2017 11 24 14:00 267.4 0.0 0.00 68.9 20.5 32.41 15.0
2017 11 24 15:00 267.1 0.0 0.00 71.1 21.7 30.34 13.9
2017 11 24 16:00 267.4 0.0 0.00 69.2 20.7 33.22 12.2
2017 11 24 17:00 268.2 0.0 0.00 64.6 18.1 40.72 6.2
2017 11 24 18:00 268.6 0.0 0.00 61.3 16.3 46.59 10.4
2017 11 24 19:00 269.4 0.0 0.00 56.9 13.9 54.42 5.7
2017 11 24 20:00 269.7 0.0 0.00 55.6 13.1 56.02 8.8
2017 11 24 21:00 269.9 0.0 0.00 53.2 11.8 58.95 6.2
2017 11 24 22:00 270.6 0.0 0.00 50.5 10.3 64.52 7.2
2017 11 24 23:00 270.2 0.0 0.00 50.6 10.3 61.85 8.3
2017 11 24 24:00 270.2 0.0 0.00 48.0 8.9 60.48 6.8
2017 11 25 1:00 270.9 0.0 0.00 44.7 7.0 71.89 7.8
2017 11 25 2:00 271.5 0.0 0.00 42.5 5.8 75.12 6.5
2017 11 25 3:00 271.8 0.0 0.00 40.4 4.7 77.4 6.5
2017 11 25 4:00 272.7 0.0 0.00 39.1 3.9 79.88 5.5
2017 11 25 5:00 272.7 0.0 0.00 38.2 3.4 80.8 6.3
2017 11 25 6:00 272.8 0.0 0.00 37.7 3.2 81.8 7.4
2017 11 25 7:00 272.9 0.0 0.00 37.4 3.0 81.7 7.1
2017 11 25 8:00 272.4 0.0 0.00 36.8 2.6 81.8 6.8
2017 11 25 9:00 271.3 0.0 0.00 40.0 4.4 74.99 7.7
2017 11 25 10:00 270.2 0.0 0.00 45.6 7.5 63.17 5.3
2017 11 25 11:00 269.3 0.0 0.00 49.9 9.9 52.74 4.3
2017 11 25 12:00 268.6 0.0 0.00 53.4 11.9 43.7 5.5
2017 11 25 13:00 268.6 0.0 0.00 55.9 13.3 40.14 6.8
2017 11 25 14:00 268.6 0.0 0.00 57.1 14.0 37.81 7.5
2017 11 25 15:00 268.6 0.0 0.00 57.6 14.2 36.13 8.3
2017 11 25 16:00 268.6 0.0 0.00 57.2 14.0 36.16 7.3
2017 11 25 17:00 268.9 0.0 0.00 54.4 12.4 39.17 5.0
2017 11 25 18:00 269.3 0.0 0.00 51.5 10.8 42.2 2.6
2017 11 25 19:00 269.4 0.0 0.00 49.5 9.7 44.31 3.0
2017 11 25 20:00 269.9 0.0 0.00 47.3 8.5 47.9 3.1
2017 11 25 21:00 270.1 0.0 0.00 46.4 8.0 50.4 4.0
2017 11 25 22:00 270.4 0.0 0.00 43.7 6.5 57.66 1.4
2017 11 25 23:00 271.0 0.0 0.00 40.8 4.9 65.88 0.4
2017 11 25 24:00 272.5 0.0 0.00 39.1 4.0 71.11 0.0
2017 11 26 1:00 273.4 0.0 0.00 36.5 2.5 77.44 0.0
2017 11 26 2:00 273.1 0.0 0.00 37.2 2.9 76.05 0.4
2017 11 26 3:00 274.5 0.0 0.00 36.3 2.4 78.93 0.0
2017 11 26 4:00 274.8 0.0 0.00 37.0 2.8 77.07 0.9
2017 11 26 5:00 274.7 0.0 0.00 36.1 2.3 78.46 2.2
2017 11 26 6:00 275.5 0.0 0.00 33.8 1.0 82.3 0.5
2017 11 26 7:00 275.8 0.0 0.00 32.6 0.3 84.3 3.2
2017 11 26 8:00 272.7 0.0 0.00 34.6 1.5 81 4.6
2017 11 26 9:00 271.2 0.0 0.00 39.1 4.0 77.34 5.8
2017 11 26 10:00 270.1 0.0 0.00 46.0 7.8 62.42 7.7
2017 11 26 11:00 269.3 0.0 0.00 51.4 10.8 50.41 7.4
2017 11 26 12:00 269.1 0.0 0.00 53.0 11.7 49.48 7.5
2017 11 26 13:00 268.7 0.0 0.00 55.7 13.2 46.63 9.1
2017 11 26 14:00 268.6 0.0 0.00 57.7 14.3 42.37 8.1
2017 11 26 15:00 268.3 0.0 0.00 58.5 14.7 39.07 8.4
2017 11 26 16:00 268.6 0.0 0.00 56.9 13.8 42.63 7.5
2017 11 26 17:00 269.0 0.0 0.00 54.8 12.7 46.38 5.4
2017 11 26 18:00 269.5 0.0 0.00 51.3 10.7 50.56 4.2
2017 11 26 19:00 270.5 0.0 0.00 46.8 8.2 58.53 3.4
2017 11 26 20:00 270.6 0.0 0.00 46.1 7.9 59.62 4.0
2017 11 26 21:00 270.7 0.0 0.00 45.9 7.7 59.1 4.4
2017 11 26 22:00 270.7 0.0 0.00 45.6 7.6 59.32 4.2
2017 11 26 23:00 270.8 0.0 0.00 44.9 7.2 59.28 3.9
2017 11 26 24:00 270.8 0.0 0.00 43.6 6.5 61.25 3.8
2017 11 27 1:00 270.9 0.0 0.00 44.1 6.7 59.44 4.2
2017 11 27 2:00 270.9 0.0 0.00 42.4 5.8 63.04 3.8
2017 11 27 3:00 271.0 0.0 0.00 40.8 4.9 66.22 4.2
2017 11 27 4:00 271.5 0.0 0.00 39.7 4.3 68.48 4.2
2017 11 27 5:00 271.5 0.0 0.00 39.2 4.0 69.59 5.2
2017 11 27 6:00 271.5 0.0 0.00 37.7 3.2 72.95 4.5
2017 11 27 7:00 271.5 0.0 0.00 37.9 3.3 73.31 4.7
2017 11 27 8:00 271.2 0.0 0.00 38.8 3.8 72.25 5.0
2017 11 27 9:00 270.3 0.0 0.00 43.7 6.5 65.82 7.3
2017 11 27 10:00 269.5 0.0 0.00 49.8 9.9 57.08 8.9
2017 11 27 11:00 269.2 0.0 0.00 53.3 11.8 53.43 9.2
2017 11 27 12:00 268.7 0.0 0.00 56.9 13.8 50.48 11.1
2017 11 27 13:00 269.0 0.0 0.00 59.1 15.1 50.6 10.7
2017 11 27 14:00 269.2 0.0 0.00 61.6 16.4 49.55 12.7
2017 11 27 15:00 269.2 0.0 0.00 62.2 16.8 48.39 12.8
2017 11 27 16:00 269.2 0.0 0.00 61.8 16.6 50.8 13.5
2017 11 27 17:00 269.5 0.0 0.00 61.4 16.3 54.18 14.7
2017 11 27 18:00 270.0 0.0 0.00 59.9 15.5 57.21 12.5
2017 11 27 19:00 270.0 0.0 0.00 59.0 15.0 57.93 12.3
2017 11 27 20:00 270.0 0.0 0.00 57.8 14.4 60.44 11.3
2017 11 27 21:00 270.4 0.0 0.00 56.7 13.7 63.13 11.3
2017 11 27 22:00 270.7 0.0 0.00 55.7 13.2 65.7 11.0
2017 11 27 23:00 270.7 0.0 0.00 56.7 13.7 63.78 12.6
2017 11 27 24:00 270.7 0.0 0.00 56.6 13.6 63.77 12.3
2017 11 28 1:00 270.6 0.0 0.00 56.6 13.6 61.99 14.5
2017 11 28 2:00 270.5 0.0 0.00 55.0 12.8 60.96 11.8
2017 11 28 3:00 270.3 0.0 0.00 53.8 12.1 59.75 8.8
2017 11 28 4:00 270.6 0.0 0.00 51.9 11.1 61.43 7.7
2017 11 28 5:00 270.7 0.0 0.00 50.8 10.4 61.99 8.6
2017 11 28 6:00 270.8 0.0 0.00 49.3 9.6 63.61 7.3
2017 11 28 7:00 270.8 0.0 0.00 47.7 8.7 66.23 5.3
2017 11 28 8:00 271.0 0.0 0.00 47.0 8.3 68.35 5.8
2017 11 28 9:00 270.1 0.0 0.00 52.2 11.2 57.51 9.0
2017 11 28 10:00 269.6 0.0 0.00 55.1 12.8 53.19 9.2
2017 11 28 11:00 269.4 0.0 0.00 56.1 13.4 53.37 7.3
2017 11 28 12:00 269.3 0.0 0.00 56.9 13.8 55.18 7.7
2017 11 28 13:00 269.6 0.0 0.00 57.0 13.9 58.98 8.5
2017 11 28 14:00 270.2 0.0 0.00 55.1 12.9 67.92 7.7
2017 11 28 15:00 269.4 0.0 0.00 56.3 13.5 52.32 6.1
2017 11 28 16:00 269.3 0.0 0.00 55.8 13.2 44.9 7.0
2017 11 28 17:00 269.3 0.0 0.00 52.9 11.6 43.19 4.7
2017 11 28 18:00 269.4 0.0 0.00 49.4 9.6 42.14 4.4
2017 11 28 19:00 269.4 0.0 0.00 46.9 8.3 42.48 3.4
2017 11 28 20:00 269.9 0.0 0.00 44.2 6.8 49.45 3.2
2017 11 28 21:00 270.2 0.0 0.00 42.7 5.9 52.19 2.5
2017 11 28 22:00 270.2 0.0 0.00 41.4 5.2 53.17 2.3
2017 11 28 23:00 270.2 0.0 0.00 40.8 4.9 52.98 3.4
2017 11 28 24:00 270.2 0.0 0.00 40.1 4.5 49.86 4.0
2017 11 29 1:00 270.4 0.0 0.00 37.3 3.0 52.63 3.0
2017 11 29 2:00 270.3 0.0 0.00 35.9 2.2 52.73 3.3
2017 11 29 3:00 270.3 0.0 0.00 35.6 2.0 49.52 2.4
2017 11 29 4:00 270.3 0.0 0.00 35.0 1.7 48.59 3.1
2017 11 29 5:00 271.1 0.0 0.00 31.2 -0.5 60.12 2.9
2017 11 29 6:00 270.3 0.0 0.00 32.9 0.5 53.33 5.1
2017 11 29 7:00 270.6 0.0 0.00 32.3 0.1 57.05 2.5
2017 11 29 8:00 270.9 0.0 0.00 31.0 -0.6 58.33 4.2
2017 11 29 9:00 269.8 0.0 0.00 33.1 0.6 56.24 4.8
2017 11 29 10:00 269.2 0.0 0.00 37.7 3.2 46.98 8.2
2017 11 29 11:00 268.8 0.0 0.00 39.4 4.1 43.75 8.4
2017 11 29 12:00 268.9 0.0 0.00 40.2 4.6 42.83 6.9
2017 11 29 13:00 268.8 0.0 0.00 40.5 4.7 42.42 9.3
2017 11 29 14:00 268.7 0.0 0.00 42.1 5.6 41.57 10.2
2017 11 29 15:00 268.7 0.0 0.00 43.1 6.2 39.43 6.2
2017 11 29 16:00 268.7 0.0 0.00 43.4 6.3 39.55 6.8
2017 11 29 17:00 269.2 0.0 0.00 41.3 5.1 44.32 4.4
2017 11 29 18:00 269.6 0.0 0.00 39.6 4.2 45.84 0.4
2017 11 29 19:00 270.2 0.0 0.00 37.1 2.8 52.61 0.6
2017 11 29 20:00 270.1 0.0 0.00 38.1 3.4 52.92 1.6
2017 11 29 21:00 269.5 0.0 0.00 40.2 4.6 53.07 3.0
2017 11 29 22:00 269.5 0.0 0.00 41.0 5.0 53.51 1.6
2017 11 29 23:00 269.5 0.0 0.00 41.2 5.1 53.24 2.2
2017 11 29 24:00 269.5 0.0 0.00 42.1 5.6 50.56 3.2
2017 11 30 1:00 269.8 0.0 0.00 41.3 5.2 50.66 4.3
2017 11 30 2:00 270.2 0.0 0.00 39.9 4.4 52.96 4.9
2017 11 30 3:00 270.1 0.0 0.00 40.3 4.6 51.71 7.5
2017 11 30 4:00 269.8 0.0 0.00 41.4 5.2 50.68 10.3
2017 11 30 5:00 270.1 0.0 0.00 41.4 5.2 52.85 9.4
2017 11 30 6:00 270.3 0.0 0.00 37.3 2.9 60.77 6.4
2017 11 30 7:00 270.9 0.0 0.00 35.4 1.9 65.55 7.8
2017 11 30 8:00 270.8 0.0 0.00 34.8 1.5 70.8 6.9
2017 11 30 9:00 270.2 0.0 0.00 38.2 3.4 66.3 8.5
2017 11 30 10:00 269.5 0.0 0.00 43.5 6.4 54.45 10.7
2017 11 30 11:00 269.4 0.0 0.00 45.7 7.6 49.33 10.5
2017 11 30 12:00 269.0 0.0 0.00 48.2 9.0 45.5 9.8
2017 11 30 13:00 268.0 0.0 0.00 51.5 10.8 34.37 10.4
2017 11 30 14:00 267.9 0.0 0.00 51.6 10.9 32.95 9.7
2017 11 30 15:00 268.5 0.0 0.00 51.3 10.7 35.09 9.1
2017 11 30 16:00 268.0 0.0 0.00 51.5 10.8 31.86 9.2
2017 11 30 17:00 268.4 0.0 0.00 49.0 9.5 33.11 5.4
2017 11 30 18:00 268.8 0.0 0.00 46.5 8.1 35.52 3.5
2017 11 30 19:00 269.4 0.0 0.00 44.4 6.9 37.78 1.4
2017 11 30 20:00 269.4 0.0 0.00 43.9 6.6 38.09 3.6
2017 11 30 21:00 269.6 0.0 0.00 41.4 5.2 42.67 4.1
2017 11 30 22:00 270.1 0.0 0.00 39.8 4.4 45.14 3.6
2017 11 30 23:00 270.5 0.0 0.00 35.8 2.1 53.93 1.3
2017 11 30 24:00 270.8 0.0 0.00 34.6 1.4 56.18 0.3
2017 12 01 1:00 270.9 0.0 0.00 34.0 1.1 57.99 1.6
2017 12 01 2:00 271.3 0.0 0.00 34.0 1.1 59.19 1.0
2017 12 01 3:00 271.8 0.0 0.00 32.1 0.1 64.12 0.8
2017 12 01 4:00 272.2 0.0 0.00 30.9 -0.6 68.49 0.0
2017 12 01 5:00 272.3 0.0 0.00 30.7 -0.7 69.69 1.5
2017 12 01 6:00 272.4 0.0 0.00 32.1 0.0 66.76 1.1
2017 12 01 7:00 273.9 0.0 0.00 30.1 -1.1 72.25 0.9
2017 12 01 8:00 271.8 0.0 0.00 31.0 -0.5 69.41 2.8
2017 12 01 9:00 270.3 0.0 0.00 34.9 1.6 68.14 4.1
2017 12 01 10:00 269.6 0.0 0.00 43.0 6.1 55.4 8.4
2017 12 01 11:00 268.6 0.0 0.00 48.9 9.4 39.06 11.7
2017 12 01 12:00 268.0 0.0 0.00 50.8 10.4 33.64 13.7
2017 12 01 13:00 267.9 0.0 0.00 52.3 11.3 32.02 10.8
2017 12 01 14:00 267.9 0.0 0.00 53.2 11.8 30.7 10.6
2017 12 01 15:00 267.9 0.0 0.00 53.3 11.9 30.57 9.8
2017 12 01 16:00 267.9 0.0 0.00 52.3 11.3 32.49 9.1
2017 12 01 17:00 268.4 0.0 0.00 48.9 9.4 36.82 4.2
2017 12 01 18:00 269.3 0.0 0.00 45.0 7.2 41.32 3.2
2017 12 01 19:00 269.5 0.0 0.00 43.6 6.4 43.79 1.9
2017 12 01 20:00 269.7 0.0 0.00 41.9 5.5 48.44 3.2
2017 12 01 21:00 270.1 0.0 0.00 40.9 5.0 51.84 5.2
2017 12 01 22:00 270.1 0.0 0.00 40.6 4.8 52.79 4.1
2017 12 01 23:00 270.2 0.0 0.00 38.9 3.9 55.76 3.4
2017 12 01 24:00 270.2 0.0 0.00 38.8 3.8 56.37 2.1
2017 12 02 1:00 270.3 0.0 0.00 38.5 3.6 57.51 0.2
2017 12 02 2:00 270.8 0.0 0.00 37.1 2.8 61.15 1.1
2017 12 02 3:00 270.9 0.0 0.00 36.7 2.6 62.73 2.1
2017 12 02 4:00 270.9 0.0 0.00 37.0 2.8 62.74 2.2
2017 12 02 5:00 270.9 0.0 0.00 37.2 2.9 63.01 3.6
2017 12 02 6:00 271.2 0.0 0.00 36.2 2.3 66.32 3.2
2017 12 02 7:00 271.6 0.0 0.00 35.2 1.8 69.4 3.4
2017 12 02 8:00 271.7 0.0 0.00 34.2 1.2 73.77 1.5
2017 12 02 9:00 270.6 0.0 0.00 37.2 2.9 73.19 4.5
2017 12 02 10:00 269.8 0.0 0.00 42.9 6.0 67.86 4.9
2017 12 02 11:00 269.2 0.0 0.00 46.7 8.2 59.74 3.3
2017 12 02 12:00 268.3 0.0 0.00 51.2 10.7 50.05 2.0
2017 12 02 13:00 267.8 0.0 0.00 55.6 13.1 40.46 0.8
2017 12 02 14:00 267.7 0.0 0.00 57.8 14.3 36.29 2.1
2017 12 02 15:00 268.1 0.0 0.00 58.1 14.5 36.86 2.3
2017 12 02 16:00 268.2 0.0 0.00 57.6 14.2 38.15 2.9
2017 12 02 17:00 268.9 0.0 0.00 54.7 12.6 41.6 1.9
2017 12 02 18:00 269.8 0.0 0.00 50.0 10.0 48.53 0.2
2017 12 02 19:00 270.2 0.0 0.00 47.2 8.5 53.12 0.3
2017 12 02 20:00 270.6 0.0 0.00 46.2 7.9 54.83 0.2
2017 12 02 21:00 270.5 0.0 0.00 46.0 7.8 55.05 0.0
2017 12 02 22:00 271.2 0.0 0.00 43.2 6.2 61 0.6
2017 12 02 23:00 271.8 0.0 0.00 42.2 5.7 63.71 0.0
2017 12 02 24:00 273.3 0.0 0.00 40.1 4.5 68.95 0.0
2017 12 03 1:00 273.2 0.0 0.00 38.3 3.5 73.52 0.0
2017 12 03 2:00 273.9 0.0 0.00 37.6 3.1 74.48 0.5
2017 12 03 3:00 273.6 0.0 0.00 36.5 2.5 77.08 0.1
2017 12 03 4:00 274.1 0.0 0.00 37.0 2.8 77.48 0.0
2017 12 03 5:00 273.7 0.0 0.00 36.4 2.5 78.74 0.8
2017 12 03 6:00 274.1 0.0 0.00 35.2 1.8 82.3 0.0
2017 12 03 7:00 279.4 0.0 0.00 34.4 1.4 85.1 0.0
2017 12 03 8:00 281.5 0.0 0.00 35.0 1.7 85.6 0.4
2017 12 03 9:00 272.8 0.0 0.00 36.8 2.7 85.2 0.9
2017 12 03 10:00 271.2 0.0 0.00 43.1 6.2 78.81 4.4
2017 12 03 11:00 270.2 0.0 0.00 51.7 10.9 62.94 6.3
2017 12 03 12:00 269.3 0.0 0.00 57.9 14.4 54.67 8.5
2017 12 03 13:00 269.3 0.0 0.00 58.6 14.8 55.62 10.5
2017 12 03 14:00 269.3 0.0 0.00 59.8 15.5 55.11 9.0
2017 12 03 15:00 269.3 0.0 0.00 62.2 16.8 54.87 10.2
2017 12 03 16:00 269.8 0.0 0.00 62.3 16.9 57.27 8.8
2017 12 03 17:00 270.2 0.0 0.00 60.1 15.6 61.65 7.0
2017 12 03 18:00 270.7 0.0 0.00 58.3 14.6 66.94 6.9
2017 12 03 19:00 270.7 0.0 0.00 60.1 15.6 68.39 11.4
2017 12 03 20:00 270.7 0.0 0.00 59.4 15.2 67.67 12.2
2017 12 03 21:00 270.7 0.0 0.00 59.6 15.4 66.15 14.2
2017 12 03 22:00 270.7 0.0 0.00 60.4 15.8 66.81 12.6
2017 12 03 23:00 270.6 0.0 0.00 60.9 16.1 68.3 14.2
2017 12 03 24:00 271.0 0.0 0.00 60.3 15.7 70.52 13.3
2017 12 04 1:00 271.3 0.0 0.00 60.3 15.7 70.87 15.1
2017 12 04 2:00 271.3 0.0 0.00 60.1 15.6 71.31 13.9
2017 12 04 3:00 270.7 0.0 0.00 61.0 16.1 69.43 15.3
2017 12 04 4:00 270.7 0.0 0.00 61.1 16.2 69.44 17.4
2017 12 04 5:00 270.8 0.0 0.00 61.4 16.3 69.53 18.9
2017 12 04 6:00 270.7 0.0 0.00 61.7 16.5 69.95 20.1
2017 12 04 7:00 271.1 0.0 0.00 61.6 16.5 71.69 20.3
2017 12 04 8:00 271.3 0.0 0.00 62.0 16.7 72.07 20.0
2017 12 04 9:00 271.3 0.0 0.00 62.1 16.7 72.88 20.1
2017 12 04 10:00 271.3 0.0 0.00 62.3 16.9 73.83 19.1
2017 12 04 11:00 271.3 0.0 0.00 63.1 17.3 74.04 18.4
2017 12 04 12:00 271.3 0.0 0.00 64.0 17.8 74.19 17.0
2017 12 04 13:00 270.8 0.0 0.00 65.8 18.8 71.73 17.7
2017 12 04 14:00 270.7 0.0 0.00 66.2 19.0 70.84 17.6
2017 12 04 15:00 270.6 0.0 0.00 67.3 19.6 67.71 14.9
2017 12 04 16:00 Wet 293.6 0.1 3.05 63.8 17.7 79.04 12.8
2017 12 04 17:00 276.1 0.0 0.00 58.7 14.9 65.7 15.8
2017 12 04 18:00 271.1 0.0 0.00 50.1 10.0 64.21 16.0
2017 12 04 19:00 270.8 0.0 0.00 47.2 8.4 58.43 20.3
2017 12 04 20:00 270.9 0.0 0.00 42.9 6.1 60.56 22.8
2017 12 04 21:00 270.8 0.0 0.00 40.5 4.7 58.73 23.0
2017 12 04 22:00 270.9 0.0 0.00 39.1 3.9 61.59 18.8
2017 12 04 23:00 270.9 0.0 0.00 34.7 1.5 62.86 19.7
2017 12 04 24:00 271.2 0.0 0.00 31.5 -0.3 67.69 16.6
2017 12 05 1:00 271.2 0.0 0.00 31.7 -0.2 68.46 17.4
2017 12 05 2:00 271.0 0.0 0.00 29.6 -1.3 60 16.3
2017 12 05 3:00 270.9 0.0 0.00 28.0 -2.2 57.24 14.2
2017 12 05 4:00 271.0 0.0 0.00 26.7 -2.9 59.68 11.5
2017 12 05 5:00 271.1 0.0 0.00 25.6 -3.5 62.55 9.0
2017 12 05 6:00 271.1 0.0 0.00 25.0 -3.9 63.42 9.7
2017 12 05 7:00 271.1 0.0 0.00 24.7 -4.1 63.93 9.6
2017 12 05 8:00 271.0 0.0 0.00 24.4 -4.2 63.67 9.2
2017 12 05 9:00 270.9 0.0 0.00 25.7 -3.5 57.61 10.9
2017 12 05 10:00 269.7 0.0 0.00 29.5 -1.4 48.08 12.9
2017 12 05 11:00 269.6 0.0 0.00 32.3 0.2 43.6 15.9
2017 12 05 12:00 269.5 0.0 0.00 34.5 1.4 42.96 17.9
2017 12 05 13:00 269.5 0.0 0.00 36.3 2.4 41.5 18.9
2017 12 05 14:00 269.5 0.0 0.00 37.8 3.2 40.71 17.1
2017 12 05 15:00 269.5 0.0 0.00 38.0 3.3 39.38 17.0
2017 12 05 16:00 269.5 0.0 0.00 38.0 3.4 38.96 14.1
2017 12 05 17:00 269.5 0.0 0.00 36.6 2.5 40.66 11.4
2017 12 05 18:00 270.0 0.0 0.00 34.0 1.1 46.22 5.9
2017 12 05 19:00 270.3 0.0 0.00 31.5 -0.3 51.94 3.5
2017 12 05 20:00 270.3 0.0 0.00 32.0 0.0 52.68 2.0
2017 12 05 21:00 270.3 0.0 0.00 32.0 0.0 54 2.3
2017 12 05 22:00 270.3 0.0 0.00 33.1 0.6 54.47 5.0
2017 12 05 23:00 270.3 0.0 0.00 34.8 1.6 49.36 7.1
2017 12 05 24:00 270.3 0.0 0.00 34.3 1.3 48.55 6.2
2017 12 06 1:00 270.3 0.0 0.00 35.2 1.8 47.29 9.3
2017 12 06 2:00 270.3 0.0 0.00 34.6 1.5 53.41 8.0
2017 12 06 3:00 270.9 0.0 0.00 32.2 0.1 61.01 4.1
2017 12 06 4:00 270.9 0.0 0.00 33.8 1.0 63.31 7.1
2017 12 06 5:00 270.9 0.0 0.00 35.1 1.7 66.45 11.0
2017 12 06 6:00 271.5 0.0 0.00 32.5 0.3 73.08 7.7
2017 12 06 7:00 271.8 0.0 0.00 31.1 -0.5 76.67 8.5
2017 12 06 8:00 272.4 0.0 0.00 29.4 -1.4 81.6 4.8
2017 12 06 9:00 271.6 0.0 0.00 30.8 -0.7 81 6.0
2017 12 06 10:00 270.9 0.0 0.00 35.0 1.7 73.29 9.3
2017 12 06 11:00 270.5 0.0 0.00 38.5 3.6 65.48 11.8
2017 12 06 12:00 270.4 0.0 0.00 39.6 4.2 61.6 11.6
2017 12 06 13:00 270.4 0.0 0.00 40.0 4.5 58.59 14.4
2017 12 06 14:00 270.2 0.0 0.00 40.1 4.5 52.99 14.4
2017 12 06 15:00 270.1 0.0 0.00 40.4 4.7 47.14 13.0
2017 12 06 16:00 270.2 0.0 0.00 39.0 3.9 51.67 8.0
2017 12 06 17:00 270.8 0.0 0.00 35.7 2.1 68 9.8
2017 12 06 18:00 273.1 0.0 0.00 31.0 -0.6 93.8 9.6
2017 12 06 19:00 272.0 0.0 0.00 30.0 -1.1 69.66 11.8
2017 12 06 20:00 271.4 0.0 0.00 26.6 -3.0 62.63 11.7
2017 12 06 21:00 271.6 0.0 0.00 24.7 -4.1 66.25 10.1
2017 12 06 22:00 271.0 0.0 0.00 25.2 -3.8 64.38 13.5
2017 12 06 23:00 271.0 0.0 0.00 24.2 -4.3 64.57 13.5
2017 12 06 24:00 271.0 0.0 0.00 23.5 -4.7 64.42 14.1
2017 12 07 1:00 271.0 0.0 0.00 21.9 -5.6 62.9 14.7
2017 12 07 2:00 271.1 0.0 0.00 20.8 -6.2 65.47 13.1
2017 12 07 3:00 271.1 0.0 0.00 20.2 -6.6 67.26 12.6
2017 12 07 4:00 271.3 0.0 0.00 19.5 -6.9 68.76 12.9
2017 12 07 5:00 271.5 0.0 0.00 18.5 -7.5 66.8 10.9
2017 12 07 6:00 271.8 0.0 0.00 16.7 -8.5 69.74 9.8
2017 12 07 7:00 271.8 0.0 0.00 15.1 -9.4 72.68 9.4
2017 12 07 8:00 271.9 0.0 0.00 13.9 -10.0 74.6 8.3
2017 12 07 9:00 271.2 0.0 0.00 15.1 -9.4 71.49 11.5
2017 12 07 10:00 270.8 0.0 0.00 17.5 -8.1 63.01 12.0
2017 12 07 11:00 270.3 0.0 0.00 20.1 -6.6 54.04 11.0
2017 12 07 12:00 269.8 0.0 0.00 22.6 -5.2 46.63 10.7
2017 12 07 13:00 269.6 0.0 0.00 24.4 -4.2 40.49 11.6
2017 12 07 14:00 269.6 0.0 0.00 25.4 -3.7 37.94 10.6
2017 12 07 15:00 269.6 0.0 0.00 26.3 -3.2 33.79 9.2
2017 12 07 16:00 269.6 0.0 0.00 26.0 -3.3 33.06 9.4
2017 12 07 17:00 269.7 0.0 0.00 24.1 -4.4 39.08 6.4
2017 12 07 18:00 270.4 0.0 0.00 20.8 -6.2 46.25 3.7
2017 12 07 19:00 270.5 0.0 0.00 18.7 -7.4 53.44 3.2
2017 12 07 20:00 271.1 0.0 0.00 17.4 -8.1 58.03 2.1
2017 12 07 21:00 271.1 0.0 0.00 17.0 -8.3 58.05 1.9
2017 12 07 22:00 271.2 0.0 0.00 16.4 -8.6 58.15 2.8
2017 12 07 23:00 271.2 0.0 0.00 15.9 -8.9 59.33 1.2
2017 12 07 24:00 271.2 0.0 0.00 15.4 -9.2 62.49 2.9
2017 12 08 1:00 271.2 0.0 0.00 15.4 -9.2 63.75 4.5
2017 12 08 2:00 271.2 0.0 0.00 16.0 -8.9 62.06 5.3
2017 12 08 3:00 271.2 0.0 0.00 16.8 -8.4 59.07 5.4
2017 12 08 4:00 271.2 0.0 0.00 16.4 -8.6 60.31 4.7
2017 12 08 5:00 271.2 0.0 0.00 16.3 -8.8 60.93 4.9
2017 12 08 6:00 271.2 0.0 0.00 16.4 -8.7 62.02 6.1
2017 12 08 7:00 271.2 0.0 0.00 17.4 -8.1 59.96 6.0
2017 12 08 8:00 271.1 0.0 0.00 17.1 -8.3 61.95 5.1
2017 12 08 9:00 270.2 0.0 0.00 19.9 -6.7 58.69 5.3
2017 12 08 10:00 269.7 0.0 0.00 24.4 -4.2 52.87 7.0
2017 12 08 11:00 269.1 0.0 0.00 27.8 -2.3 49.96 7.1
2017 12 08 12:00 268.9 0.0 0.00 31.4 -0.3 46.14 5.8
2017 12 08 13:00 268.8 0.0 0.00 33.8 1.0 43.95 7.3
2017 12 08 14:00 268.8 0.0 0.00 35.6 2.0 42.37 8.1
2017 12 08 15:00 269.2 0.0 0.00 37.0 2.8 40.79 8.4
2017 12 08 16:00 269.5 0.0 0.00 36.8 2.7 41.88 8.9
2017 12 08 17:00 269.8 0.0 0.00 34.3 1.3 46.55 5.4
2017 12 08 18:00 270.3 0.0 0.00 31.3 -0.4 52.09 1.9
2017 12 08 19:00 270.8 0.0 0.00 29.3 -1.5 56.12 0.9
2017 12 08 20:00 271.0 0.0 0.00 28.0 -2.2 61.37 4.9
2017 12 08 21:00 271.3 0.0 0.00 28.4 -2.0 72.68 8.7
2017 12 08 22:00 271.8 0.0 0.00 28.1 -2.2 81.4 10.6
2017 12 08 23:00 272.4 0.0 0.00 27.6 -2.5 83.5 9.8
2017 12 08 24:00 273.1 0.0 0.00 26.4 -3.1 86.2 7.9
2017 12 09 1:00 273.5 0.0 0.00 26.0 -3.3 86.4 7.8
2017 12 09 2:00 273.1 0.0 0.00 26.2 -3.2 85 8.7
2017 12 09 3:00 273.1 0.0 0.00 26.4 -3.1 83.7 9.5
2017 12 09 4:00 272.8 0.0 0.00 26.9 -2.8 82.5 12.1
2017 12 09 5:00 272.4 0.0 0.00 28.2 -2.1 78.13 10.6
2017 12 09 6:00 271.7 0.0 0.00 28.9 -1.7 71.52 8.9
2017 12 09 7:00 272.1 0.0 0.00 27.5 -2.5 72.66 9.9
2017 12 09 8:00 272.2 0.0 0.00 25.8 -3.4 75.85 11.7
2017 12 09 9:00 271.8 0.0 0.00 25.0 -3.9 75.41 11.2
2017 12 09 10:00 271.4 0.0 0.00 25.4 -3.7 70.28 12.9
2017 12 09 11:00 270.9 0.0 0.00 26.6 -3.0 63.22 12.2
2017 12 09 12:00 270.7 0.0 0.00 26.5 -3.0 61.41 11.5
2017 12 09 13:00 270.4 0.0 0.00 26.4 -3.1 60.14 12.6
2017 12 09 14:00 270.3 0.0 0.00 26.7 -3.0 57.08 12.1
2017 12 09 15:00 270.3 0.0 0.00 27.3 -2.6 53.9 10.3
2017 12 09 16:00 270.3 0.0 0.00 27.5 -2.5 52.19 9.7
2017 12 09 17:00 270.6 0.0 0.00 26.6 -3.0 53.98 7.6
2017 12 09 18:00 271.0 0.0 0.00 24.3 -4.3 58.6 4.9
2017 12 09 19:00 271.1 0.0 0.00 22.8 -5.1 62.16 5.3
2017 12 09 20:00 271.8 0.0 0.00 21.1 -6.0 65.94 3.1
2017 12 09 21:00 271.9 0.0 0.00 20.0 -6.7 69.59 2.7
2017 12 09 22:00 272.4 0.0 0.00 19.4 -7.0 73.06 3.4
2017 12 09 23:00 272.5 0.0 0.00 18.8 -7.3 75.67 3.4
2017 12 09 24:00 272.5 0.0 0.00 18.6 -7.4 76.93 4.0
2017 12 10 1:00 272.5 0.0 0.00 20.3 -6.5 74.34 5.5
2017 12 10 2:00 271.9 0.0 0.00 21.6 -5.8 72.82 8.2
2017 12 10 3:00 271.8 0.0 0.00 23.7 -4.6 71.65 8.2
2017 12 10 4:00 271.8 0.0 0.00 24.7 -4.0 72.83 8.2
2017 12 10 5:00 271.7 0.0 0.00 26.9 -2.8 68.61 8.7
2017 12 10 6:00 271.7 0.0 0.00 26.8 -2.9 70.37 8.0
2017 12 10 7:00 271.9 0.0 0.00 25.8 -3.4 73.77 8.1
2017 12 10 8:00 272.2 0.0 0.00 25.0 -3.9 77.47 8.1
2017 12 10 9:00 271.3 0.0 0.00 30.4 -0.9 69.85 10.7
2017 12 10 10:00 270.6 0.0 0.00 35.0 1.6 62.73 11.9
2017 12 10 11:00 270.0 0.0 0.00 39.2 4.0 54.43 12.4
2017 12 10 12:00 269.5 0.0 0.00 41.9 5.5 49.31 13.1
2017 12 10 13:00 269.4 0.0 0.00 44.7 7.0 43.07 13.0
2017 12 10 14:00 268.8 0.0 0.00 46.9 8.3 39.4 11.9
2017 12 10 15:00 268.7 0.0 0.00 48.0 8.9 37.64 10.9
2017 12 10 16:00 268.7 0.0 0.00 47.7 8.7 38.61 9.8
2017 12 10 17:00 269.3 0.0 0.00 45.1 7.3 42.65 6.1
2017 12 10 18:00 270.0 0.0 0.00 42.9 6.0 46.01 3.7
2017 12 10 19:00 270.2 0.0 0.00 40.7 4.9 49.82 2.9
2017 12 10 20:00 270.2 0.0 0.00 38.7 3.7 53.87 4.1
2017 12 10 21:00 270.9 0.0 0.00 36.6 2.5 58.66 4.4
2017 12 10 22:00 270.9 0.0 0.00 36.6 2.5 59.77 4.4
2017 12 10 23:00 271.0 0.0 0.00 34.4 1.3 66.12 2.4
2017 12 10 24:00 270.9 0.0 0.00 34.3 1.3 68.53 3.7
2017 12 11 1:00 270.9 0.0 0.00 35.5 2.0 65.41 2.5
2017 12 11 2:00 271.5 0.0 0.00 34.0 1.1 68.6 4.0
2017 12 11 3:00 271.7 0.0 0.00 32.1 0.1 71.94 3.9
2017 12 11 4:00 271.6 0.0 0.00 32.2 0.1 71.98 4.0
2017 12 11 5:00 271.6 0.0 0.00 32.5 0.3 72.67 3.7
2017 12 11 6:00 271.6 0.0 0.00 33.2 0.7 70.8 5.1
2017 12 11 7:00 271.0 0.0 0.00 35.9 2.2 62.76 6.3
2017 12 11 8:00 270.9 0.0 0.00 35.7 2.0 59.15 6.0
2017 12 11 9:00 270.6 0.0 0.00 35.9 2.2 57.39 8.3
2017 12 11 10:00 270.2 0.0 0.00 38.0 3.3 50.42 12.6
2017 12 11 11:00 269.5 0.0 0.00 45.0 7.2 42.17 19.0
2017 12 11 12:00 269.4 0.0 0.00 46.9 8.3 48.05 23.7
2017 12 11 13:00 269.6 0.0 0.00 46.6 8.1 49.65 20.3
2017 12 11 14:00 270.1 0.0 0.00 45.3 7.4 55.32 22.3
2017 12 11 15:00 270.3 0.0 0.00 44.1 6.7 61.62 21.4
2017 12 11 16:00 270.8 0.0 0.00 43.0 6.1 65.7 19.0
2017 12 11 17:00 270.8 0.0 0.00 41.5 5.3 69.41 15.5
2017 12 11 18:00 271.0 0.0 0.00 40.5 4.7 71.68 13.8
2017 12 11 19:00 273.4 0.0 0.00 38.3 3.5 79.19 15.2
2017 12 11 20:00 272.2 0.0 0.00 35.5 1.9 79.91 16.4
2017 12 11 21:00 272.1 0.0 0.00 34.4 1.3 78.51 14.4
2017 12 11 22:00 271.6 0.0 0.00 33.0 0.6 73.99 15.1
2017 12 11 23:00 271.6 0.0 0.00 29.8 -1.2 67.68 14.2
2017 12 11 24:00 271.5 0.0 0.00 27.7 -2.4 67.49 10.9
2017 12 12 1:00 271.7 0.0 0.00 24.6 -4.1 70.91 7.8
2017 12 12 2:00 271.8 0.0 0.00 22.2 -5.4 73.93 8.2
2017 12 12 3:00 272.4 0.0 0.00 20.6 -6.3 77.46 6.8
2017 12 12 4:00 272.5 0.0 0.00 18.2 -7.7 81.3 8.3
2017 12 12 5:00 273.2 0.0 0.00 16.2 -8.8 84.2 8.2
2017 12 12 6:00 273.2 0.0 0.00 15.3 -9.3 83.2 8.5
2017 12 12 7:00 272.5 0.0 0.00 14.9 -9.5 79.18 8.9
2017 12 12 8:00 272.4 0.0 0.00 14.1 -9.9 77.47 6.2
2017 12 12 9:00 271.7 0.0 0.00 15.6 -9.1 72.63 9.5
2017 12 12 10:00 270.9 0.0 0.00 18.8 -7.4 63.51 9.4
2017 12 12 11:00 270.4 0.0 0.00 21.5 -5.8 53.55 9.2
2017 12 12 12:00 269.7 0.0 0.00 24.7 -4.1 42.41 7.7
2017 12 12 13:00 268.9 0.0 0.00 28.1 -2.2 30.47 8.3
2017 12 12 14:00 268.7 0.0 0.00 30.6 -0.8 25.24 9.3
2017 12 12 15:00 268.7 0.0 0.00 31.6 -0.2 24.37 9.2
2017 12 12 16:00 268.7 0.0 0.00 31.7 -0.2 27.5 8.6
2017 12 12 17:00 269.2 0.0 0.00 30.0 -1.1 36.05 5.8
CST mV in mm F C % mph
Year Month Day Hour Leaf Wetness Total
Precipitation
Avg. Temp Avg. Rel.
Humidity
Wind
Speed

Back to the top of the page